Погода в Новоселье

Россия / Псковская область     58°06′38″N   28°52′42″E
темп.,
°C
ветер,
м/с
пор.,
м/с
влажн.,
%
обл.,
%
осадки,
мм/ч
давл.,
гПа
погр.,
м
18 мая, вт
вт1800:00+13с2499100 2.8 1005164
03:00+13св2699100 3.7 1004203
06:00+13ссв3799100 1.0 1003268
09:00+15всв2598100 4.1 1003299
12:00+17в259797 1.9 1003332
15:00+21ююв468484 3.9 1002865
18:00+20ююв2687100 2.4 1002708
21:00+16юв259799 6.7 1002140
19 мая, ср
ср1900:00+14юв2298100 0.0 100240
03:00+14всв2497100 0.1 100080
06:00+15вюв41197100 0.8 999819
09:00+16ююв5119498 1.4 1000865
12:00+15ю5109094 0.4 1001895
15:00+18юз4474100 0.8 10021022
18:00+15юз468689 1.0 1003757
21:00+12юз3790100 1.0 1005598
20 мая, чт
чт2000:00+11з3691100 0.0 1007503
03:00+10зсз2691100 0.0 1007436
06:00+10сз2690100 0.0 1008519
09:00+11ссз3684100 0.1 1007647
12:00+11ссз41092100 0.7 1006732
15:00+10ссз51294100 2.4 1006760
18:00+9ссз71596100 4.9 1004850
21:00+9ссз71597100 17.2 10041008
21 мая, пт
пт2100:00+9сз71595100 3.9 10041079
03:00+7зсз61497100 7.7 1004709
06:00+6зсз41197100 4.9 1006418
09:00+7зсз3990100 5.6 1007466
12:00+14з585095 0.0 10081455
15:00+16з684297 0.0 10082586
18:00+14з49545 0.0 10101730
21:00+9зюз25706 0.0 101188
22 мая, сб
сб2200:00+6зюз268531 0.0 1013110
03:00+4юз28925 0.0 1014168
06:00+5ююз2888100 0.0 1015213
09:00+12ююз4767100 0.0 1015602
12:00+13ююз4965100 0.0 1015857
15:00+17ююз585297 0.0 10141815
18:00+17ю5105448 0.0 10131801
21:00+13ю4126914 0.0 1013524